TimeCST,TemperatureF,Dew PointF,Humidity,Sea Level PressureIn,VisibilityMPH,Wind Direction,Wind SpeedMPH,Gust SpeedMPH,PrecipitationIn,Events,Conditions,WindDirDegrees,DateUTC
12:55 AM,30.2,28.4,93,30.03,10.0,Calm,Calm,-,N/A,,Clear,0,2013-02-24 06:55:00
1:55 AM,28.4,26.6,93,30.04,10.0,Calm,Calm,-,N/A,,Clear,0,2013-02-24 07:55:00
2:15 AM,28.4,28.4,100,30.04,10.0,Calm,Calm,-,N/A,,Clear,0,2013-02-24 08:15:00
2:35 AM,28.4,28.4,100,30.04,8.0,Calm,Calm,-,N/A,,Clear,0,2013-02-24 08:35:00
2:55 AM,28.4,26.6,93,30.03,10.0,Calm,Calm,-,N/A,,Clear,0,2013-02-24 08:55:00
3:15 AM,26.6,26.6,100,30.03,10.0,East,3.5,-,N/A,,Clear,100,2013-02-24 09:15:00
3:35 AM,28.4,26.6,93,30.03,10.0,Calm,Calm,-,N/A,,Clear,0,2013-02-24 09:35:00
3:55 AM,28.4,26.6,93,30.04,10.0,Calm,Calm,-,N/A,,Clear,0,2013-02-24 09:55:00
4:15 AM,26.6,26.6,100,30.04,9.0,NNE,3.5,-,N/A,,Clear,30,2013-02-24 10:15:00
4:35 AM,30.2,28.4,93,30.03,10.0,ENE,3.5,-,N/A,,Clear,60,2013-02-24 10:35:00
4:55 AM,26.6,24.8,93,30.04,10.0,East,3.5,-,N/A,,Clear,100,2013-02-24 10:55:00
5:55 AM,28.4,26.6,93,30.07,10.0,Calm,Calm,-,N/A,,Clear,0,2013-02-24 11:55:00
7:55 AM,35.6,30.2,81,30.11,10.0,Calm,Calm,-,N/A,,Clear,0,2013-02-24 13:55:00
8:55 AM,39.2,32.0,75,30.11,10.0,East,10.4,-,N/A,,Clear,90,2013-02-24 14:55:00
9:55 AM,44.6,30.2,57,30.10,10.0,ENE,8.1,-,N/A,,Clear,70,2013-02-24 15:55:00
10:55 AM,46.4,30.2,53,30.11,10.0,Variable,6.9,-,N/A,,Clear,0,2013-02-24 16:55:00
11:55 AM,48.2,30.2,50,30.09,10.0,East,8.1,-,N/A,,Clear,100,2013-02-24 17:55:00
12:55 PM,51.8,30.2,44,30.06,10.0,East,5.8,-,N/A,,Clear,100,2013-02-24 18:55:00
1:55 PM,53.6,30.2,41,30.03,10.0,Variable,5.8,-,N/A,,Clear,0,2013-02-24 19:55:00
2:55 PM,55.4,32.0,41,30.01,10.0,ENE,8.1,-,N/A,,Clear,70,2013-02-24 20:55:00
3:55 PM,55.4,32.0,41,29.99,10.0,East,6.9,-,N/A,,Clear,90,2013-02-24 21:55:00
4:55 PM,55.4,32.0,41,29.98,10.0,East,6.9,-,N/A,,Clear,80,2013-02-24 22:55:00
5:55 PM,51.8,30.2,44,29.99,10.0,NE,4.6,-,N/A,,Clear,40,2013-02-24 23:55:00
6:55 PM,48.2,30.2,50,29.99,10.0,NE,4.6,-,N/A,,Clear,50,2013-02-25 00:55:00
7:55 PM,48.2,30.2,50,29.98,10.0,NE,4.6,-,N/A,,Clear,40,2013-02-25 01:55:00
8:55 PM,48.2,28.4,46,29.95,10.0,ENE,6.9,-,N/A,,Clear,60,2013-02-25 02:55:00
9:55 PM,46.4,28.4,50,29.94,10.0,ENE,8.1,-,N/A,,Clear,60,2013-02-25 03:55:00
10:55 PM,46.4,26.6,46,29.94,10.0,ENE,6.9,-,N/A,,Clear,70,2013-02-25 04:55:00
11:55 PM,46.4,28.4,50,29.93,10.0,ENE,8.1,-,N/A,,Clear,70,2013-02-25 05:55:00